Regional Weather Roundup
Issued by NWS State College, PA

Home | Current Version | Previous Version | Text Only | Print | Product List | Glossary On
Versions: 1 2 3 4 5 6 7 8 9 10 11 12 13 14 15 16 17 18 19 20 21 22 23 24 25 26 27 28 29 30 31 32 33 34 35 36 37 38 39 40 41 42 43 44 45 46 47 48 49 50
000
ASUS41 KCTP 182010
RWRCTP

REGIONAL WEATHER ROUNDUP
NATIONAL WEATHER SERVICE STATE COLLEGE PA
400 PM EDT FRI APR 18 2014

Note: "fair" indicates few or no clouds below 12,000 feet with no
significant weather and/or obstructions to visibility.

* = STATION THAT DOES NOT REPORT PRECIPITATION /E.G. RAIN...SNOW...ETC/
    THUNDER OR FOG.

PAZ002>004-007>009-013>016-020>023-029>032-182100-
WESTERN PENNSYLVANIA

CITY           SKY/WX    TMP DP  RH WIND       PRES   REMARKS
ERIE           PTSUNNY   60  37  42 CALM      30.24F
MEADVILLE      NOT AVBL
FRANKLIN*      MOSUNNY   63  32  31 W8        30.24F
NEW CASTLE     FAIR      67  34  29 CALM      30.23F
BEAVER COUNTY  MOSUNNY   68  32  26 SW9G17    30.21F
BUTLER*        PTSUNNY   66  34  30 SW9       30.24F
PITTSBURGH INT CLOUDY    67  29  24 VRB3      30.22F
PITTSBURGH     PTSUNNY   68  27  21 SW6       30.22F
INDIANA*       PTSUNNY   64  28  25 W8        30.23F
LATROBE        PTSUNNY   66  32  28 W8        30.23F
WASHINGTON CO* PTSUNNY   68  30  24 W7        30.24F
$$

PAZ004>006-010>012-017>019-024>028-033>037-041-042-045-046-049>053-182100-
CENTRAL PENNSYLVANIA

CITY           SKY/WX    TMP DP  RH WIND       PRES   REMARKS
BRADFORD       MOSUNNY   62  26  25 VRB6G17   30.20F
DUBOIS         PTSUNNY   64  27  24 W8G16     30.21F
CLEARFIELD     PTSUNNY   61  30  31 VRB5      30.23F
JOHNSTOWN      PTSUNNY   60  31  33 S9        30.23F
ALTOONA        PTSUNNY   59  34  39 S5        30.27F
STATE COLLEGE  SUNNY     57  30  35 S6        30.27F
WILLIAMSPORT   PTSUNNY   53  31  42 VRB7      30.29F
SELINSGROVE    CLOUDY    54  32  43 SW7       30.32F
FT INDIANTOWN  CLOUDY    51  34  52 S3        30.34F
CAPITAL CITY   PTSUNNY   52  34  50 E10       30.34F
HARRISBURG     CLOUDY    54  35  48 SE9       30.33F
YORK           PTSUNNY   53  32  44 CALM      30.33F
$$

PAZ038>040-043-044-047-048-054-055-060>062-067>071-182100-
EASTERN PENNSYLVANIA

CITY           SKY/WX    TMP DP  RH WIND       PRES   REMARKS
SCRANTON       CLOUDY    53  28  38 SW12G18   30.29F
MOUNT POCONO   CLOUDY    45  28  51 VRB3      30.30F
ALLENTOWN      CLOUDY    52  30  43 SW7       30.36F
QUAKERTOWN*    PTSUNNY   50  32  50 CALM      30.36F
READING        PTSUNNY   54  30  40 S6        30.33F
LANCASTER      PTSUNNY   51  34  52 VRB5      30.35F
COATESVILLE    NOT AVBL
POTTSTOWN      PTSUNNY   50  31  48 E3        30.37F
BLUE BELL      PTSUNNY   52  30  43 CALM      30.35F
DOYLESTOWN     PTSUNNY   49  31  49 VRB5      30.35F
WILLOW GROVE   NOT AVBL
NORTH PHILA    CLOUDY    52  30  43 VRB5      30.38F
PHILADELPHIA   CLOUDY    53  30  41 CALM      30.37F
$$



USA.gov is the U.S. government's official web portal to all federal, state and local government web resources and services.